Location: Table Mountain
(47.2500°N, 120.5778°W)
Time: 07:47:45
(UTC-07:00)

Vanguard 2 - Visible Passes

Search period start: 16 July 2018 00:00
Search period end: 26 July 2018 00:00
Orbit: 553 x 2939 km, 32.9° (Epoch: 16 July)

Date Brightness Start Highest point End Pass type
(mag) Time Alt. Az. Time Alt. Az. Time Alt. Az.
16 Jul 10.2 01:34:30 10° W 01:47:48 31° SSW 01:51:09 28° S visible
16 Jul 10.6 21:28:44 10° WSW 21:44:53 48° S 22:00:01 10° ESE visible
16 Jul 10.4 23:39:43 10° WSW 23:55:51 44° SSW 00:05:25 21° SE visible
17 Jul 10.5 01:53:07 10° W 02:05:11 26° SW 02:06:43 25° SSW visible
17 Jul 10.5 21:46:29 10° WSW 22:02:45 49° S 22:17:53 10° ESE visible
17 Jul 10.4 23:57:50 10° W 00:13:33 41° SSW 00:21:08 26° SSE visible
18 Jul 10.7 02:12:08 10° W 02:22:27 20° SW 02:22:27 20° SW visible
18 Jul 10.5 22:04:20 10° WSW 22:20:36 49° S 22:35:40 10° ESE visible
19 Jul 10.4 00:16:04 10° W 00:31:10 36° SSW 00:36:58 28° S visible
19 Jul 11.0 02:31:54 10° WSW 02:38:18 15° SW 02:38:18 15° SW visible
19 Jul 10.6 22:22:17 10° WSW 22:38:26 47° S 22:51:34 15° SE visible
20 Jul 10.5 00:34:29 10° W 00:48:40 31° SSW 00:52:54 28° S visible
20 Jul 10.6 22:40:19 10° W 22:56:14 44° SSW 23:07:33 20° SE visible
21 Jul 10.7 00:53:08 10° W 01:06:05 26° SW 01:08:54 25° SSW visible
21 Jul 10.7 22:58:26 10° W 23:13:57 41° SSW 23:23:36 23° SSE visible
22 Jul 10.9 01:12:12 10° W 01:23:23 21° SW 01:24:56 21° SW visible
22 Jul 10.7 21:05:45 10° WSW 21:20:47 48° S 21:37:02 10° ESE visible
22 Jul 10.7 23:16:42 10° W 23:31:36 36° SSW 23:39:42 24° SSE visible
23 Jul 11.2 01:32:05 10° WSW 01:40:38 16° SW 01:41:02 16° SW visible
23 Jul 10.7 21:23:42 10° WSW 21:38:38 46° S 21:54:29 10° SE visible
23 Jul 10.8 23:35:08 10° W 23:49:09 31° SSW 23:55:50 24° S visible
24 Jul 11.4 01:54:39 10° WSW 01:57:11 11° SW 01:57:11 11° SW visible
24 Jul 10.7 21:41:44 10° W 21:56:26 43° SSW 22:10:40 14° SE visible
24 Jul 10.9 23:53:51 10° W 00:06:37 26° SW 00:12:01 22° SSW visible
25 Jul 10.8 21:59:52 10° W 22:14:12 39° SSW 22:26:54 16° SSE visible
